Location: Caltech
(34.1382°N, 118.1253°W)
Time: 23:45:17
(UTC-07:00)

COSMOS 2428 - Visible Passes

Search period start: 27 May 2017 00:00
Search period end: 06 June 2017 00:00
Orbit: 844 x 859 km, 70.9° (Epoch: 27 May)

Date Brightness Start Highest point End Pass type
(mag) Time Alt. Az. Time Alt. Az. Time Alt. Az.
27 May 4.2 00:59:16 10° N 01:04:08 29° ENE 01:04:08 29° ENE visible
27 May 4.2 02:43:21 10° NW 02:46:07 24° WNW 02:46:07 24° WNW visible
28 May 4.2 00:47:11 10° N 00:51:54 29° ENE 00:51:54 29° ENE visible
28 May 4.3 02:31:17 10° NW 02:33:53 23° WNW 02:33:53 23° WNW visible
29 May 4.2 00:35:06 10° N 00:39:42 29° NE 00:39:42 29° NE visible
29 May 4.3 02:19:12 10° NW 02:21:42 23° WNW 02:21:42 23° WNW visible
30 May 4.2 00:23:01 10° N 00:27:34 29° NE 00:27:34 29° NE visible
30 May 4.4 02:07:07 10° NW 02:09:34 22° WNW 02:09:34 22° WNW visible
31 May 4.2 00:10:56 10° N 00:15:28 29° NE 00:15:28 29° NE visible
31 May 4.4 01:55:02 10° NW 01:57:28 22° WNW 01:57:28 22° WNW visible
31 May 4.1 23:58:50 10° N 00:03:25 29° NE 00:03:25 29° NE visible
01 Jun 4.4 01:42:58 10° NW 01:45:25 22° WNW 01:45:25 22° WNW visible
01 Jun 4.1 23:46:46 10° N 23:51:24 29° NE 23:51:24 29° NE visible
02 Jun 4.4 01:30:53 10° NW 01:33:24 23° WNW 01:33:24 23° WNW visible
02 Jun 4.0 23:34:40 10° N 23:39:25 30° ENE 23:39:25 30° ENE visible
03 Jun 4.4 01:18:49 10° NW 01:21:26 23° WNW 01:21:26 23° WNW visible
03 Jun 4.0 23:22:36 10° N 23:27:28 30° ENE 23:27:28 30° ENE visible
04 Jun 4.4 01:06:43 10° NW 01:09:29 24° WNW 01:09:29 24° WNW visible
04 Jun 3.9 23:10:30 10° N 23:15:30 30° ENE 23:15:33 30° ENE visible
05 Jun 4.4 00:54:39 10° NW 00:57:34 25° WNW 00:57:34 25° WNW visible
05 Jun 3.9 22:58:25 10° N 23:03:25 30° ENE 23:03:40 30° ENE visible
